ENY3438 KCRP-KDFW

Flight info

Callsign ENY3438
Flight time N/A
Altitude 28000
Route ATHIS CARTI T499 SAT GUTZZ BOOVE7
Aircraft E75L/M-SDE3GILORVW/S

Departure

Time 2026-04-25 18:46
Airport Corpus Christi International Airport (KCRP)

Arrival

Time N/A
Airport Dallas Fort Worth International Airport (KDFW)
Time Latitude Longitude Altitude Speed Heading
2026-04-25 18:30 27.77324 -97.50256 51 ft 0 kts 40°
2026-04-25 18:38 27.77310 -97.50270 47 ft 4 kts 40°
2026-04-25 18:38 27.77294 -97.50283 48 ft 3 kts 67°
2026-04-25 18:38 27.77287 -97.50308 51 ft 4 kts 84°
2026-04-25 18:39 27.77288 -97.50338 51 ft 4 kts 99°
2026-04-25 18:39 27.77287 -97.50364 51 ft 2 kts 50°
2026-04-25 18:39 27.77286 -97.50366 51 ft 2 kts 48°
2026-04-25 18:41 27.77286 -97.50365 51 ft 0 kts 46°
2026-04-25 18:41 27.77294 -97.50362 51 ft 2 kts 12°
2026-04-25 18:41 27.77316 -97.50379 51 ft 7 kts 305°
2026-04-25 18:41 27.77358 -97.50439 49 ft 13 kts 316°
2026-04-25 18:42 27.77427 -97.50496 52 ft 10 kts 310°
2026-04-25 18:42 27.77460 -97.50542 49 ft 13 kts 309°
2026-04-25 18:42 27.77568 -97.50670 50 ft 21 kts 315°
2026-04-25 18:42 27.77685 -97.50798 52 ft 25 kts 316°
2026-04-25 18:43 27.77795 -97.50918 52 ft 17 kts 317°
2026-04-25 18:43 27.77840 -97.50999 52 ft 11 kts 251°
2026-04-25 18:43 27.77793 -97.51070 50 ft 12 kts 231°
2026-04-25 18:43 27.77788 -97.51156 50 ft 13 kts 316°
2026-04-25 18:44 27.77851 -97.51228 52 ft 14 kts 313°
2026-04-25 18:44 27.77922 -97.51311 52 ft 15 kts 313°
2026-04-25 18:44 27.77989 -97.51399 50 ft 14 kts 290°
2026-04-25 18:44 27.77956 -97.51479 52 ft 13 kts 225°
2026-04-25 18:45 27.77882 -97.51522 50 ft 12 kts 166°
2026-04-25 18:45 27.77781 -97.51427 47 ft 34 kts 135°
2026-04-25 18:45 27.77468 -97.51086 51 ft 97 kts 136°
2026-04-25 18:45 27.76836 -97.50388 231 ft 145 kts 135°
2026-04-25 18:46 27.76092 -97.49509 727 ft 156 kts 131°
2026-04-25 18:46 27.75561 -97.48470 998 ft 166 kts 111°
2026-04-25 18:46 27.75369 -97.47103 1731 ft 188 kts 92°
2026-04-25 18:46 27.75668 -97.45590 2486 ft 212 kts 69°
2026-04-25 18:47 27.76567 -97.44196 3351 ft 228 kts 43°
2026-04-25 18:47 27.77970 -97.43260 4352 ft 245 kts 21°
2026-04-25 18:47 27.79750 -97.43080 5073 ft 270 kts 346°
2026-04-25 18:47 27.81427 -97.44004 6201 ft 276 kts 320°
2026-04-25 18:48 27.82791 -97.45510 7529 ft 270 kts 312°
2026-04-25 18:48 27.84002 -97.47087 8958 ft 263 kts 312°
2026-04-25 18:48 27.85253 -97.48611 10192 ft 263 kts 314°
2026-04-25 18:48 27.86564 -97.50134 10944 ft 282 kts 314°
2026-04-25 18:49 27.87952 -97.51802 11611 ft 300 kts 310°
2026-04-25 18:49 27.89324 -97.53680 12290 ft 317 kts 308°
2026-04-25 18:49 27.90701 -97.55685 12967 ft 333 kts 306°
2026-04-25 18:49 27.92108 -97.57808 13887 ft 341 kts 306°
2026-04-25 18:50 27.93537 -97.59969 14891 ft 344 kts 305°
2026-04-25 18:50 27.94984 -97.62149 15901 ft 348 kts 304°
2026-04-25 18:50 27.96431 -97.64369 16851 ft 352 kts 304°
2026-04-25 18:50 27.97864 -97.66628 17769 ft 355 kts 302°
2026-04-25 18:51 27.99272 -97.68936 18580 ft 358 kts 301°
2026-04-25 18:51 27.99724 -97.69693 18821 ft 359 kts 301°
2026-04-25 18:51 28.02030 -97.73684 20006 ft 364 kts 300°
2026-04-25 18:51 28.03373 -97.76133 20710 ft 367 kts 299°
2026-04-25 18:52 28.04674 -97.78582 21391 ft 370 kts 299°
2026-04-25 18:52 28.05978 -97.81111 22063 ft 373 kts 298°
2026-04-25 18:52 28.07265 -97.83670 22726 ft 375 kts 298°
2026-04-25 18:52 28.08499 -97.86306 23348 ft 378 kts 295°
2026-04-25 18:53 28.09607 -97.88990 23879 ft 380 kts 294°
2026-04-25 18:53 28.10730 -97.91713 24412 ft 382 kts 294°
2026-04-25 18:53 28.11871 -97.94432 24941 ft 383 kts 294°
2026-04-25 18:53 28.13030 -97.97161 25490 ft 383 kts 294°
2026-04-25 18:54 28.15398 -98.02474 27031 ft 374 kts 301°
2026-04-25 18:54 28.17120 -98.04664 27696 ft 377 kts 314°
2026-04-25 18:54 28.19317 -98.06379 27900 ft 393 kts 326°
2026-04-25 18:55 28.21781 -98.07847 27909 ft 404 kts 327°
2026-04-25 18:55 28.24317 -98.09277 27811 ft 408 kts 328°
2026-04-25 18:55 28.26883 -98.10687 27792 ft 408 kts 328°
2026-04-25 18:55 28.29439 -98.12096 27801 ft 409 kts 328°
2026-04-25 18:56 28.31969 -98.13491 27800 ft 409 kts 328°
2026-04-25 18:56 28.34527 -98.14902 27791 ft 409 kts 328°
2026-04-25 18:56 28.37086 -98.16314 27794 ft 409 kts 328°
2026-04-25 18:56 28.39643 -98.17726 27790 ft 409 kts 328°
2026-04-25 18:57 28.42204 -98.19141 27811 ft 409 kts 328°
2026-04-25 18:57 28.44759 -98.20552 27798 ft 407 kts 328°
2026-04-25 18:57 28.47318 -98.21968 27796 ft 408 kts 328°
2026-04-25 18:57 28.48182 -98.22446 27797 ft 408 kts 328°
2026-04-25 18:58 28.52423 -98.24795 27791 ft 408 kts 328°
2026-04-25 18:58 28.57524 -98.27622 27795 ft 408 kts 328°
2026-04-25 18:58 28.60075 -98.29041 27798 ft 407 kts 328°
2026-04-25 18:59 28.65135 -98.31869 27806 ft 407 kts 328°
2026-04-25 18:59 28.70214 -98.34730 27834 ft 406 kts 328°
2026-04-25 19:00 28.75278 -98.37603 27856 ft 405 kts 327°
2026-04-25 19:00 28.77768 -98.39021 27863 ft 405 kts 327°
2026-04-25 19:01 28.82812 -98.41911 27868 ft 405 kts 327°
2026-04-25 19:01 28.85329 -98.43361 27871 ft 405 kts 327°
2026-04-25 19:01 28.87845 -98.44814 27934 ft 404 kts 327°
2026-04-25 19:01 28.90357 -98.46272 27936 ft 404 kts 327°
2026-04-25 19:02 28.95341 -98.49173 27934 ft 404 kts 327°
2026-04-25 19:02 28.97843 -98.50636 27935 ft 404 kts 327°
2026-04-25 19:02 29.00342 -98.52103 27969 ft 404 kts 327°
2026-04-25 19:03 29.03687 -98.54075 27982 ft 403 kts 326°
2026-04-25 19:03 29.07839 -98.56533 27971 ft 403 kts 326°
2026-04-25 19:03 29.10322 -98.58010 27967 ft 403 kts 326°
2026-04-25 19:04 29.15258 -98.60960 27962 ft 402 kts 326°
2026-04-25 19:04 29.17738 -98.62450 27946 ft 402 kts 326°
2026-04-25 19:05 29.22702 -98.65443 27949 ft 402 kts 326°
2026-04-25 19:05 29.27661 -98.68452 28017 ft 402 kts 326°
2026-04-25 19:06 29.32570 -98.71452 28079 ft 402 kts 326°
2026-04-25 19:06 29.39946 -98.75987 28075 ft 402 kts 327°